GW3498 Weather Reports


Display with metric or nautical units.
time (UTC)temp
F
wind
direction
speed
MPH
gust
MPH
rain 1hr
in
rain 24hr
in
rain mn
in
humidity
%
barometer
mb
20260902143532 90 269 2.0 8.0 0.00 0.00 0.00 36 1017.8
20260902142527 93 219 2.0 6.0 0.00 0.00 0.00 34 1017.7
20260902141521 93 122 2.0 4.0 0.00 0.00 0.00 31 1017.8
20260902140536 93 337 2.0 4.0 0.00 0.00 0.00 26 1017.8
20260902135531 93 232 2.0 4.0 0.00 0.00 0.00 25 1017.8
20260902134525 92 310 1.0 4.0 0.00 0.00 0.00 24 1018.0
20260902133519 94 264 1.0 3.0 0.00 0.00 0.00 23 1018.1
20260902132534 93 278 1.0 4.0 0.00 0.00 0.00 23 1018.2
20260902131528 92 219 2.0 4.0 0.00 0.00 0.00 24 1018.3
20260902130525 93 230 2.0 4.0 0.00 0.00 0.00 23 1018.3
20260902125519 93 343 2.0 6.0 0.00 0.00 0.00 24 1018.5
20260902124552 93 241 1.0 3.0 0.00 0.00 0.00 21 1018.6
20260902123546 93 238 1.0 3.0 0.00 0.00 0.00 23 1018.5
20260902122520 93 235 2.0 4.0 0.00 0.00 0.00 26 1018.7
20260902121555 92 235 1.0 4.0 0.00 0.00 0.00 26 1018.6
20260902120550 91 241 1.0 3.0 0.00 0.00 0.00 27 1018.9
20260902115524 91 232 2.0 6.0 0.00 0.00 0.00 30 1018.8
20260902114519 91 251 2.0 7.0 0.00 0.00 0.00 31 1018.9
20260902113534 91 245 1.0 3.0 0.00 0.00 0.00 31 1019.1
20260902112528 91 216 1.0 2.0 0.00 0.00 0.00 31 1019.1
20260902111523 90 334 2.0 4.0 0.00 0.00 0.00 32 1019.1
20260902110518 90 249 1.0 4.0 0.00 0.00 0.00 32 1019.2
20260902105532 91 254 1.0 4.0 0.00 0.00 0.00 32 1019.2
20260902104527 90 332 1.0 3.0 0.00 0.00 0.00 34 1019.3
20260902103542 88 196 2.0 6.0 0.00 0.00 0.00 34 1019.4
20260902102536 90 213 2.0 6.0 0.00 0.00 0.00 33 1019.4
20260902101555 90 219 2.0 6.0 0.00 0.00 0.00 33 1019.5
20260902100524 89 233 2.0 6.0 0.00 0.00 0.00 33 1019.6
20260902095519 91 220 0.0 1.0 0.00 0.00 0.00 31 1019.6
20260902094534 89 196 1.0 3.0 0.00 0.00 0.00 37 1019.6
20260902093528 88 179 1.0 3.0 0.00 0.00 0.00 36 1019.6
20260902092522 89 203 1.0 2.0 0.00 0.00 0.00 35 1019.6
20260902091517 87 172 1.0 2.0 0.00 0.00 0.00 38 1019.6
20260902090531 86 184 0.0 2.0 0.00 0.00 0.00 39 1019.6
20260902085526 88 184 1.0 3.0 0.00 0.00 0.00 40 1019.5
20260902084520 87 130 0.0 1.0 0.00 0.00 0.00 39 1019.5
20260902083534 86 105 0.0 1.0 0.00 0.00 0.00 39 1019.5
20260902082531 85 168 0.0 2.0 0.00 0.00 0.00 41 1019.5
20260902081525 85 179 0.0 1.0 0.00 0.00 0.00 42 1019.4
20260902080519 84 184 0.0 1.0 0.00 0.00 0.00 41 1019.4
20260902075532 83 143 0.0 1.0 0.00 0.00 0.00 45 1019.3
20260902074527 82 356 0.0 1.0 0.00 0.00 0.00 48 1019.3
20260902073522 79 186 0.0 1.0 0.00 0.00 0.00 53 1019.1
20260902072517 74 201 0.0 2.0 0.00 0.00 0.00 60 1019.0
20260902071532 73 167 0.0 1.0 0.00 0.00 0.00 63 1018.9
20260902070527 73 0.0 0.0 0.00 0.00 0.00 65 1019.0
20260902065521 73 0.0 0.0 0.00 0.00 0.00 64 1018.8
20260902064536 73 0.0 0.0 0.00 0.00 0.00 63 1018.7
20260902063530 73 0.0 0.0 0.00 0.00 0.00 62 1018.7
20260902062524 73 190 0.0 1.0 0.00 0.00 0.00 63 1018.5
20260902061520 73 0.0 0.0 0.00 0.00 0.00 61 1018.5
20260902060534 72 0.0 0.0 0.00 0.00 0.00 58 1018.5
20260902055549 73 182 0.0 1.0 0.00 0.00 0.00 60 1018.4
20260902054524 73 0.0 0.0 0.00 0.00 0.00 56 1018.4
20260902053518 73 36 0.0 1.0 0.00 0.00 0.00 55 1018.5
20260902052533 72 0.0 0.0 0.00 0.00 0.00 54 1018.5
20260902051528 71 34 0.0 1.0 0.00 0.00 0.00 55 1018.4
20260902050522 71 0.0 0.0 0.00 0.00 0.00 55 1018.5
20260902045517 71 21 0.0 1.0 0.00 0.00 0.00 56 1018.5
20260902044532 71 21 0.0 1.0 0.00 0.00 0.00 57 1018.6
20260902043526 70 42 0.0 1.0 0.00 0.00 0.00 55 1018.6
20260902042521 71 0.0 0.0 0.00 0.00 0.00 55 1018.5
20260902041535 72 54 0.0 1.0 0.00 0.00 0.00 52 1018.3
20260902040530 71 0.0 0.0 0.00 0.00 0.00 52 1018.3
20260902035544 71 0.0 0.0 0.00 0.00 0.00 54 1018.2
20260902034518 72 0.0 0.0 0.00 0.00 0.00 53 1018.1
20260902033533 73 56 0.0 1.0 0.00 0.00 0.00 50 1018.1
20260902032528 72 0.0 0.0 0.00 0.00 0.00 57 1018.1
20260902031521 72 37 0.0 1.0 0.00 0.00 0.00 58 1018.2
20260902030516 72 0.0 0.0 0.00 0.00 0.00 54 1018.2
20260902025531 74 31 1.0 2.0 0.00 0.00 0.00 51 1018.1
20260902024525 73 27 0.0 1.0 0.00 0.00 0.00 55 1018.2
20260902023519 74 45 0.0 1.0 0.00 0.00 0.00 56 1018.0
20260902022534 74 35 1.0 2.0 0.00 0.00 0.00 54 1018.0
20260902021528 73 32 0.0 1.0 0.00 0.00 0.00 52 1018.0
20260902020524 72 355 0.0 1.0 0.00 0.00 0.00 49 1018.0
20260902015539 73 0.0 0.0 0.00 0.00 0.00 47 1018.0
20260902014534 73 63 0.0 1.0 0.00 0.00 0.00 46 1018.0
20260902013527 73 67 0.0 1.0 0.00 0.00 0.00 44 1018.0
20260902012522 73 0.0 0.0 0.00 0.00 0.00 46 1018.1
20260902011517 73 30 0.0 1.0 0.00 0.00 0.00 46 1018.0
20260902010533 73 0.0 0.0 0.00 0.00 0.00 47 1018.1
20260902005546 75 32 0.0 2.0 0.00 0.00 0.00 48 1018.2
20260902004520 73 61 0.0 1.0 0.00 0.00 0.00 50 1018.3
20260902003535 73 57 0.0 1.0 0.00 0.00 0.00 51 1018.3
20260902002530 73 53 0.0 1.0 0.00 0.00 0.00 57 1018.1
20260902001523 74 38 0.0 1.0 0.00 0.00 0.00 57 1018.2
20260902000517 74 0.0 0.0 0.00 0.00 0.00 57 1018.4
20260901235532 74 29 0.0 1.0 0.00 0.00 0.00 57 1018.4
20260901234527 75 53 1.0 2.0 0.00 0.00 0.00 57 1018.5
20260901233523 74 44 0.0 1.0 0.00 0.00 0.00 54 1018.5
20260901232517 75 53 0.0 1.0 0.00 0.00 0.00 50 1018.4
20260901231531 75 38 0.0 1.0 0.00 0.00 0.00 53 1018.5
20260901230525 74 49 0.0 1.0 0.00 0.00 0.00 56 1018.4
20260901225522 74 68 0.0 1.0 0.00 0.00 0.00 57 1018.4
20260901224535 74 0.0 0.0 0.00 0.00 0.00 57 1018.4
20260901223549 74 46 0.0 1.0 0.00 0.00 0.00 61 1018.4
20260901222523 75 0.0 0.0 0.00 0.00 0.00 62 1018.6
20260901221518 75 45 0.0 1.0 0.00 0.00 0.00 61 1018.5
20260901220533 75 47 0.0 1.0 0.00 0.00 0.00 61 1018.6
20260901215528 74 9 0.0 1.0 0.00 0.00 0.00 63 1018.6
20260901214521 75 18 0.0 1.0 0.00 0.00 0.00 64 1018.6
20260901213555 75 0.0 0.0 0.00 0.00 0.00 65 1018.6
20260901212530 75 0.0 0.0 0.00 0.00 0.00 65 1018.6
20260901211525 76 0.0 0.0 0.00 0.00 0.00 64 1018.7
20260901210518 77 0.0 0.0 0.00 0.00 0.00 64 1018.6
20260901205534 77 40 0.0 1.0 0.00 0.00 0.00 63 1018.7
20260901204530 78 30 0.0 1.0 0.00 0.00 0.00 62 1018.7
20260901203523 78 37 0.0 2.0 0.00 0.00 0.00 61 1018.6
20260901202542 78 27 0.0 1.0 0.00 0.00 0.00 60 1018.6
20260901201535 78 5 1.0 3.0 0.00 0.00 0.00 60 1018.6
20260901200550 77 45 0.0 1.0 0.00 0.00 0.00 62 1018.6
20260901195527 78 0.0 0.0 0.00 0.00 0.00 60 1018.6
20260901194520 78 289 1.0 2.0 0.00 0.00 0.00 58 1018.5
20260901193556 79 0.0 0.0 0.00 0.00 0.00 57 1018.5
20260901192531 79 5 0.0 2.0 0.00 0.00 0.00 56 1018.4
20260901191526 80 360 2.0 4.0 0.00 0.00 0.00 56 1018.3
20260901190542 80 17 1.0 2.0 0.00 0.00 0.00 55 1018.3
20260901185517 80 8 2.0 4.0 0.00 0.00 0.00 54 1018.2
20260901184531 80 14 2.0 4.0 0.00 0.00 0.00 53 1018.1
20260901183527 81 17 1.0 2.0 0.00 0.00 0.00 53 1018.1
20260901182522 81 12 1.0 2.0 0.00 0.00 0.00 52 1018.0
20260901181517 81 357 2.0 6.0 0.00 0.00 0.00 51 1018.0
20260901180532 82 8 2.0 6.0 0.00 0.00 0.00 50 1018.0
20260901175527 82 353 1.0 6.0 0.00 0.00 0.00 49 1017.9
20260901174521 82 45 1.0 3.0 0.00 0.00 0.00 49 1017.8
20260901173516 83 16 1.0 2.0 0.00 0.00 0.00 48 1017.7
20260901172531 83 20 1.0 3.0 0.00 0.00 0.00 48 1017.8
20260901171525 84 70 1.0 3.0 0.00 0.00 0.00 47 1017.9
20260901170519 84 10 2.0 6.0 0.00 0.00 0.00 46 1017.8
20260901165534 85 227 1.0 3.0 0.00 0.00 0.00 44 1017.9
20260901164530 85 324 2.0 4.0 0.00 0.00 0.00 44 1017.8
20260901163523 86 343 2.0 8.0 0.00 0.00 0.00 43 1017.9
20260901162517 87 343 2.0 6.0 0.00 0.00 0.00 43 1017.9
20260901161532 88 339 2.0 4.0 0.00 0.00 0.00 43 1017.8
20260901160526 89 182 2.0 7.0 0.00 0.00 0.00 42 1017.8
20260901155521 89 20 3.0 13.0 0.00 0.00 0.00 42 1017.7
20260901154516 89 20 3.0 6.0 0.00 0.00 0.00 41 1017.6
20260901153532 90 342 2.0 10.0 0.00 0.00 0.00 40 1017.5
20260901152525 90 225 2.0 7.0 0.00 0.00 0.00 39 1017.3
20260901151522 91 285 2.0 7.0 0.00 0.00 0.00 39 1017.4
20260901150535 91 149 3.0 9.0 0.00 0.00 0.00 39 1017.3
20260901145529 91 266 2.0 7.0 0.00 0.00 0.00 38 1017.2
20260901144525 92 282 2.0 4.0 0.00 0.00 0.00 38 1017.4